"read_dt","SO2 (ppb)","flags","PMT voltage (V)","lamp voltage (V)","lamp intensity (Hz)","internal temp (C)","react chamber temp (C)","sample flow (l/min)","pres (mmHg)","SO2 bkg (ppb)","SO2 coefficient"
2016-06-09 00:05:00,2143E-3,5C000404,-0723,0828,12125,033.4,036.0,0.246,752.1,01.17,0.508
2016-06-09 00:06:00,2300E-3,5C000404,-0723,0828,12119,033.4,036.8,0.245,752.2,01.17,0.508
2016-06-09 00:07:00,2413E-3,5C000404,-0723,0830,12297,033.5,037.8,0.245,752.0,01.17,0.508
2016-06-09 00:08:00,2369E-3,5C000404,-0723,0829,12237,033.6,038.9,0.245,752.3,01.17,0.508
2016-06-09 00:09:00,2368E-3,5C000404,-0723,0829,12133,033.7,039.9,0.245,752.2,01.17,0.508
2016-06-09 00:10:00,2351E-3,5C000404,-0723,0830,12279,033.7,040.9,0.245,752.2,01.17,0.508
2016-06-09 00:11:00,2366E-3,5C000404,-0723,0830,12282,033.8,041.8,0.244,752.2,01.17,0.508
2016-06-09 00:12:00,2488E-3,5C000404,-0723,0831,12208,033.9,042.8,0.244,752.1,01.17,0.508
2016-06-09 00:13:00,2313E-3,5C000400,-0723,0831,12171,033.9,043.7,0.244,752.1,01.17,0.508
2016-06-09 00:14:00,2361E-3,5C000400,-0723,0831,12062,033.9,044.5,0.244,752.1,01.17,0.508
2016-06-09 00:15:00,2208E-3,5C000400,-0723,0831,12108,034.0,045.3,0.244,752.1,01.17,0.508
2016-06-09 00:16:00,2517E-3,5C000400,-0723,0831,12167,034.0,045.8,0.243,752.2,01.17,0.508
2016-06-09 00:17:00,2363E-3,5C000400,-0723,0832,12293,034.1,045.8,0.244,752.2,01.17,0.508
2016-06-09 00:18:00,2385E-3,5C000400,-0723,0831,12211,034.1,045.7,0.243,752.1,01.17,0.508
2016-06-09 00:19:00,2294E-3,5C000400,-0723,0832,12100,034.1,045.7,0.244,752.0,01.17,0.508
2016-06-09 00:20:00,2344E-3,5C000400,-0723,0832,12083,034.1,045.7,0.244,752.0,01.17,0.508
2016-06-09 00:21:00,2324E-3,5C000400,-0723,0832,12282,034.1,045.7,0.244,752.0,01.17,0.508
2016-06-09 00:22:00,2520E-3,5C000400,-0723,0833,12048,034.1,045.7,0.243,752.0,01.17,0.508
2016-06-09 00:23:00,2420E-3,5C000400,-0723,0832,12141,034.2,045.7,0.243,752.0,01.17,0.508
2016-06-09 00:24:00,2504E-3,5C000400,-0723,0832,12259,034.2,045.7,0.243,752.0,01.17,0.508
2016-06-09 00:25:00,2512E-3,5C000400,-0723,0832,12220,034.2,045.7,0.243,752.0,01.17,0.508
2016-06-09 00:26:00,2343E-3,5C000400,-0723,0831,12230,034.3,045.7,0.243,752.0,01.17,0.508
2016-06-09 00:27:00,2268E-3,5C000400,-0723,0831,12179,034.3,045.7,0.243,752.0,01.17,0.508
2016-06-09 00:28:00,2316E-3,5C000400,-0723,0832,12210,034.3,045.7,0.243,751.9,01.17,0.508
2016-06-09 00:29:00,2580E-3,5C000400,-0723,0831,12193,034.3,045.7,0.243,751.9,01.17,0.508
2016-06-09 00:30:00,2477E-3,5C000400,-0723,0831,12134,034.4,045.7,0.243,751.9,01.17,0.508
2016-06-09 00:31:00,2403E-3,5C000400,-0723,0831,12247,034.4,045.7,0.243,751.9,01.17,0.508
2016-06-09 00:32:00,2422E-3,5C000400,-0723,0832,12112,034.4,045.7,0.242,751.9,01.17,0.508
2016-06-09 00:33:00,2382E-3,5C000400,-0723,0833,12209,034.5,045.7,0.243,751.8,01.17,0.508
2016-06-09 00:34:00,2370E-3,5C000400,-0723,0831,12294,034.5,045.7,0.242,751.8,01.17,0.508
2016-06-09 00:35:00,2354E-3,5C000400,-0723,0831,12092,034.5,045.7,0.243,751.8,01.17,0.508
2016-06-09 00:36:00,2357E-3,5C000400,-0723,0830,12104,034.5,045.7,0.242,751.7,01.17,0.508
2016-06-09 00:37:00,2448E-3,5C000400,-0723,0831,12124,034.6,045.7,0.242,751.8,01.17,0.508
2016-06-09 00:38:00,2343E-3,5C000400,-0723,0832,11968,034.6,045.7,0.242,751.7,01.17,0.508
2016-06-09 00:39:00,2513E-3,5C000400,-0723,0832,12092,034.7,045.7,0.242,751.7,01.17,0.508
2016-06-09 00:40:00,2400E-3,5C000400,-0723,0832,12109,034.6,045.7,0.242,751.6,01.17,0.508
2016-06-09 00:41:00,2485E-3,5C000400,-0723,0831,12351,034.7,045.7,0.242,751.7,01.17,0.508
2016-06-09 00:42:00,2339E-3,5C000400,-0723,0831,12075,034.8,045.7,0.242,751.6,01.17,0.508
2016-06-09 00:43:00,2440E-3,5C000400,-0723,0832,12243,034.8,045.7,0.242,751.6,01.17,0.508
2016-06-09 00:44:00,2237E-3,5C000400,-0723,0832,12252,034.8,045.7,0.242,751.5,01.17,0.508
2016-06-09 00:45:00,2262E-3,5C000400,-0723,0832,12256,034.8,045.7,0.242,751.5,01.17,0.508
2016-06-09 00:46:00,2381E-3,5C000400,-0723,0831,12193,034.8,045.7,0.242,751.5,01.17,0.508
2016-06-09 00:47:00,2238E-3,5C000400,-0723,0832,12102,034.8,045.7,0.242,751.5,01.17,0.508
2016-06-09 00:48:00,2305E-3,5C000400,-0723,0831,12078,034.9,045.7,0.241,751.5,01.17,0.508
2016-06-09 00:49:00,2382E-3,5C000400,-0723,0831,12125,034.9,045.7,0.241,751.4,01.17,0.508
2016-06-09 00:50:00,2484E-3,5C000400,-0723,0831,12074,034.9,045.7,0.241,751.4,01.17,0.508
2016-06-09 00:51:00,2234E-3,5C000400,-0723,0832,12149,035.0,045.7,0.241,751.4,01.17,0.508
2016-06-09 00:52:00,2245E-3,5C000400,-0723,0832,12132,035.0,045.7,0.241,751.4,01.17,0.508
2016-06-09 00:53:00,2353E-3,5C000400,-0723,0832,12243,035.0,045.7,0.241,751.4,01.17,0.508
2016-06-09 00:54:00,2379E-3,5C000400,-0723,0831,12099,035.0,045.7,0.241,751.3,01.17,0.508
2016-06-09 00:55:00,2534E-3,5C000400,-0723,0831,12208,035.1,045.7,0.241,751.3,01.17,0.508
2016-06-09 00:56:00,2419E-3,5C000400,-0723,0832,12179,035.1,045.7,0.241,751.3,01.17,0.508
2016-06-09 00:57:00,2258E-3,5C000400,-0723,0831,12182,035.1,045.7,0.241,751.3,01.17,0.508
2016-06-09 00:58:00,2276E-3,5C000400,-0723,0832,12068,035.1,045.7,0.241,751.3,01.17,0.508
2016-06-09 00:59:00,2461E-3,5C000400,-0723,0832,12140,035.1,045.7,0.241,751.3,01.17,0.508
2016-06-09 01:00:00,2340E-3,5C000400,-0723,0832,12097,035.2,045.7,0.241,751.2,01.17,0.508
2016-06-09 01:01:00,2399E-3,5C000400,-0723,0831,12214,035.2,045.7,0.241,751.2,01.17,0.508
2016-06-09 01:02:00,2324E-3,5C000400,-0723,0832,12268,035.2,045.7,0.241,751.2,01.17,0.508
2016-06-09 01:03:00,2448E-3,5C000400,-0723,0832,12214,035.2,045.7,0.241,751.2,01.17,0.508
2016-06-09 01:04:00,2541E-3,5C000400,-0723,0832,12286,035.3,045.7,0.241,751.2,01.17,0.508
2016-06-09 01:05:00,2574E-3,5C000400,-0723,0831,12205,035.3,045.7,0.240,751.2,01.17,0.508
2016-06-09 01:06:00,2252E-3,5C000400,-0723,0832,12163,035.3,045.7,0.240,751.2,01.17,0.508
2016-06-09 01:07:00,2461E-3,5C000400,-0723,0832,12185,035.3,045.7,0.240,751.2,01.17,0.508
2016-06-09 01:08:00,2483E-3,5C000400,-0723,0831,12170,035.3,045.7,0.240,751.2,01.17,0.508
2016-06-09 01:09:00,2312E-3,5C000400,-0723,0832,12236,035.4,045.7,0.240,751.1,01.17,0.508
2016-06-09 01:10:00,2529E-3,5C000400,-0723,0831,12150,035.4,045.7,0.240,751.2,01.17,0.508
2016-06-09 01:11:00,2508E-3,5C000400,-0723,0831,12194,035.4,045.7,0.240,751.3,01.17,0.508
2016-06-09 01:12:00,2464E-3,5C000400,-0723,0832,12214,035.4,045.7,0.241,751.2,01.17,0.508
2016-06-09 01:13:00,2206E-3,5C000400,-0723,0832,12194,035.4,045.7,0.241,751.2,01.17,0.508
2016-06-09 01:14:00,2258E-3,5C000400,-0723,0831,12080,035.4,045.7,0.240,751.2,01.17,0.508
2016-06-09 01:15:00,2410E-3,5C000400,-0723,0832,12155,035.5,045.7,0.240,751.2,01.17,0.508
2016-06-09 01:16:00,2348E-3,5C000400,-0723,0832,12220,035.5,045.7,0.240,751.2,01.17,0.508
2016-06-09 01:17:00,2503E-3,5C000400,-0723,0832,12196,035.5,045.7,0.240,751.2,01.17,0.508
2016-06-09 01:18:00,2428E-3,5C000400,-0723,0831,12030,035.5,045.7,0.240,751.2,01.17,0.508
2016-06-09 01:19:00,2383E-3,5C000400,-0723,0831,12152,035.5,045.7,0.239,751.2,01.17,0.508
2016-06-09 01:20:00,2305E-3,5C000400,-0723,0832,12350,035.5,045.7,0.240,751.3,01.17,0.508
2016-06-09 01:21:00,2372E-3,5C000400,-0723,0831,12128,035.5,045.7,0.240,751.2,01.17,0.508
2016-06-09 01:22:00,2224E-3,5C000400,-0723,0831,12231,035.6,045.7,0.240,751.2,01.17,0.508
2016-06-09 01:23:00,2419E-3,5C000400,-0723,0832,12057,035.6,045.7,0.240,751.3,01.17,0.508
2016-06-09 01:24:00,2449E-3,5C000400,-0723,0832,12135,035.6,045.7,0.240,751.3,01.17,0.508
2016-06-09 01:25:00,2435E-3,5C000400,-0723,0831,12254,035.6,045.7,0.240,751.3,01.17,0.508
2016-06-09 01:26:00,2389E-3,5C000400,-0723,0832,11942,035.6,045.7,0.240,751.3,01.17,0.508
2016-06-09 01:27:00,2473E-3,5C000400,-0723,0832,12211,035.6,045.7,0.240,751.3,01.17,0.508
2016-06-09 01:28:00,2487E-3,5C000400,-0723,0830,12095,035.6,045.7,0.239,751.4,01.17,0.508
2016-06-09 01:29:00,2354E-3,5C000400,-0723,0831,12234,035.7,045.7,0.239,751.4,01.17,0.508
2016-06-09 01:30:00,2376E-3,5C000400,-0723,0830,12085,035.6,045.7,0.239,751.3,01.17,0.508
2016-06-09 01:31:00,2348E-3,5C000400,-0723,0830,12136,035.7,045.7,0.240,751.4,01.17,0.508
2016-06-09 01:32:00,2505E-3,5C000400,-0723,0830,12108,035.7,045.7,0.240,751.5,01.17,0.508
2016-06-09 01:33:00,2393E-3,5C000400,-0723,0831,12119,035.7,045.7,0.240,751.4,01.17,0.508
2016-06-09 01:34:00,2347E-3,5C000400,-0723,0831,12134,035.7,045.7,0.240,751.5,01.17,0.508
2016-06-09 01:35:00,2551E-3,5C000400,-0723,0830,12210,035.7,045.7,0.239,751.5,01.17,0.508
2016-06-09 01:36:00,2464E-3,5C000400,-0723,0831,12318,035.7,045.7,0.239,751.5,01.17,0.508
2016-06-09 01:37:00,2438E-3,5C000400,-0723,0831,12047,035.7,045.7,0.239,751.5,01.17,0.508
2016-06-09 01:38:00,2344E-3,5C000400,-0723,0831,12344,035.8,045.7,0.239,751.6,01.17,0.508
2016-06-09 01:39:00,2320E-3,5C000400,-0723,0831,12148,035.8,045.7,0.239,751.7,01.17,0.508
2016-06-09 01:40:00,2453E-3,5C000400,-0723,0832,12110,035.8,045.7,0.240,751.8,01.17,0.508
2016-06-09 01:41:00,2456E-3,5C000400,-0723,0832,12144,035.8,045.7,0.240,751.9,01.17,0.508
2016-06-09 01:42:00,2390E-3,5C000400,-0723,0831,12148,035.8,045.7,0.239,751.8,01.17,0.508
2016-06-09 01:43:00,2370E-3,5C000400,-0723,0831,12215,035.8,045.7,0.239,751.7,01.17,0.508
2016-06-09 01:44:00,2484E-3,5C000400,-0723,0831,12071,035.8,045.7,0.239,751.4,01.17,0.508
2016-06-09 01:45:00,2533E-3,5C000400,-0723,0830,12146,035.8,045.7,0.239,751.1,01.17,0.508
2016-06-09 01:46:00,2452E-3,5C000400,-0723,0831,12324,035.8,045.7,0.239,751.3,01.17,0.508
2016-06-09 01:47:00,2363E-3,5C000400,-0723,0830,12162,035.8,045.7,0.239,751.5,01.17,0.508
2016-06-09 01:48:00,2321E-3,5C000400,-0723,0831,12201,035.8,045.7,0.239,751.6,01.17,0.508
2016-06-09 01:49:00,2393E-3,5C000400,-0723,0831,12169,035.8,045.7,0.239,751.4,01.17,0.508
2016-06-09 01:50:00,2697E-3,5C000400,-0723,0831,12221,035.9,045.7,0.239,751.6,01.17,0.508
2016-06-09 01:51:00,2478E-3,5C000400,-0723,0831,12159,035.9,045.7,0.239,751.6,01.17,0.508
2016-06-09 01:52:00,2586E-3,5C000400,-0723,0830,12165,035.9,045.7,0.239,751.5,01.17,0.508
2016-06-09 01:53:00,2464E-3,5C000400,-0723,0830,12263,035.9,045.7,0.239,751.5,01.17,0.508
2016-06-09 01:54:00,2397E-3,5C000400,-0723,0831,12208,035.9,045.7,0.239,751.6,01.17,0.508
2016-06-09 01:55:00,2370E-3,5C000400,-0723,0831,12245,035.9,045.7,0.238,751.7,01.17,0.508
2016-06-09 01:56:00,2485E-3,5C000400,-0723,0831,12239,035.9,045.7,0.239,751.7,01.17,0.508
2016-06-09 01:57:00,2513E-3,5C000400,-0723,0830,12062,035.9,045.7,0.239,751.8,01.17,0.508
2016-06-09 01:58:00,2423E-3,5C000400,-0723,0829,12255,036.0,045.7,0.239,751.8,01.17,0.508
2016-06-09 01:59:00,2399E-3,5C000400,-0723,0830,12295,035.9,045.7,0.239,751.7,01.17,0.508
2016-06-09 02:00:00,2438E-3,5C000400,-0723,0830,12184,036.0,045.7,0.239,751.7,01.17,0.508
2016-06-09 02:01:00,2532E-3,5C000400,-0723,0831,12228,036.0,045.7,0.239,751.8,01.17,0.508
2016-06-09 02:02:00,2430E-3,5C000400,-0723,0830,12227,036.0,045.7,0.239,751.7,01.17,0.508
2016-06-09 02:03:00,2500E-3,5C000400,-0723,0831,12073,036.0,045.7,0.239,751.8,01.17,0.508
2016-06-09 02:04:00,2347E-3,5C000400,-0723,0831,12231,036.0,045.7,0.239,751.9,01.17,0.508
2016-06-09 02:05:00,2481E-3,5C000400,-0723,0831,12152,036.0,045.7,0.239,751.9,01.17,0.508
2016-06-09 02:06:00,2406E-3,5C000400,-0723,0831,12124,036.0,045.7,0.239,751.9,01.17,0.508
2016-06-09 02:07:00,2463E-3,5C000400,-0723,0832,12165,036.0,045.7,0.238,752.0,01.17,0.508
2016-06-09 02:08:00,2323E-3,5C000400,-0723,0831,12190,036.0,045.7,0.238,751.8,01.17,0.508
2016-06-09 02:09:00,2498E-3,5C000400,-0723,0830,12336,036.1,045.7,0.238,751.9,01.17,0.508
2016-06-09 02:10:00,2476E-3,5C000400,-0723,0831,12212,036.0,045.7,0.239,751.8,01.17,0.508
2016-06-09 02:11:00,2385E-3,5C000400,-0723,0832,12212,036.1,045.7,0.239,751.9,01.17,0.508
2016-06-09 02:12:00,2357E-3,5C000400,-0723,0830,12104,036.1,045.7,0.239,751.9,01.17,0.508
2016-06-09 02:13:00,2425E-3,5C000400,-0723,0832,12210,036.1,045.7,0.239,752.0,01.17,0.508
2016-06-09 02:14:00,2399E-3,5C000400,-0723,0831,12180,036.1,045.7,0.239,752.1,01.17,0.508
2016-06-09 02:15:00,2432E-3,5C000400,-0723,0831,12109,036.1,045.7,0.239,752.1,01.17,0.508
2016-06-09 02:16:00,2455E-3,5C000400,-0723,0830,12370,036.1,045.7,0.238,752.1,01.17,0.508
2016-06-09 02:17:00,2495E-3,5C000400,-0723,0832,12096,036.1,045.7,0.238,752.0,01.17,0.508
2016-06-09 02:18:00,2319E-3,5C000400,-0723,0831,12196,036.1,045.7,0.238,752.1,01.17,0.508
2016-06-09 02:19:00,2493E-3,5C000400,-0723,0831,12234,036.1,045.7,0.238,752.1,01.17,0.508
2016-06-09 02:20:00,2334E-3,5C000400,-0723,0830,12144,036.2,045.7,0.238,752.2,01.17,0.508
2016-06-09 02:21:00,2507E-3,5C000400,-0723,0831,12187,036.1,045.7,0.239,752.1,01.17,0.508
2016-06-09 02:22:00,2473E-3,5C000400,-0723,0832,12176,036.2,045.7,0.239,752.1,01.17,0.508
2016-06-09 02:23:00,2488E-3,5C000400,-0723,0832,12146,036.2,045.7,0.239,752.1,01.17,0.508
2016-06-09 02:24:00,2440E-3,5C000400,-0723,0829,12246,036.2,045.7,0.239,752.1,01.17,0.508
2016-06-09 02:25:00,2622E-3,5C000400,-0723,0831,12172,036.2,045.7,0.239,752.0,01.17,0.508
2016-06-09 02:26:00,2448E-3,5C000400,-0723,0832,12191,036.2,045.7,0.238,752.1,01.17,0.508
2016-06-09 02:27:00,2475E-3,5C000400,-0723,0830,11860,036.2,045.7,0.238,752.0,01.17,0.508
2016-06-09 02:28:00,2376E-3,5C000400,-0723,0830,12222,036.2,045.7,0.238,752.0,01.17,0.508
2016-06-09 02:29:00,2493E-3,5C000400,-0723,0831,12197,036.3,045.7,0.238,752.1,01.17,0.508
2016-06-09 02:30:00,2504E-3,5C000400,-0723,0831,12184,036.2,045.7,0.238,752.0,01.17,0.508
2016-06-09 02:31:00,2445E-3,5C000400,-0723,0831,12166,036.2,045.7,0.238,752.0,01.17,0.508
2016-06-09 02:32:00,2384E-3,5C000400,-0723,0833,12172,036.3,045.7,0.238,752.1,01.17,0.508
2016-06-09 02:33:00,2574E-3,5C000400,-0723,0830,12183,036.3,045.7,0.238,752.0,01.17,0.508
2016-06-09 02:34:00,2456E-3,5C000400,-0723,0832,12174,036.3,045.7,0.238,752.2,01.17,0.508
2016-06-09 02:35:00,2442E-3,5C000400,-0723,0831,12351,036.3,045.7,0.238,752.2,01.17,0.508
2016-06-09 02:36:00,2510E-3,5C000400,-0723,0830,12197,036.3,045.7,0.238,752.1,01.17,0.508
2016-06-09 02:37:00,2453E-3,5C000400,-0723,0831,12043,036.3,045.7,0.238,752.0,01.17,0.508
2016-06-09 02:38:00,2494E-3,5C000400,-0723,0830,12174,036.3,045.7,0.238,752.1,01.17,0.508
2016-06-09 02:39:00,2449E-3,5C000400,-0723,0830,12146,036.3,045.7,0.238,752.2,01.17,0.508
2016-06-09 02:40:00,2466E-3,5C000400,-0723,0830,12048,036.3,045.7,0.238,752.1,01.17,0.508
2016-06-09 02:41:00,2492E-3,5C000400,-0723,0830,12052,036.3,045.7,0.238,752.3,01.17,0.508
2016-06-09 02:42:00,2482E-3,5C000400,-0723,0831,12337,036.3,045.7,0.238,752.3,01.17,0.508
2016-06-09 02:43:00,2321E-3,5C000400,-0723,0831,12151,036.4,045.7,0.238,752.3,01.17,0.508
2016-06-09 02:44:00,2469E-3,5C000400,-0723,0831,12306,036.4,045.7,0.238,752.3,01.17,0.508
2016-06-09 02:45:00,2499E-3,5C000400,-0723,0831,12260,036.4,045.7,0.238,752.4,01.17,0.508
2016-06-09 02:46:00,2471E-3,5C000400,-0723,0831,11991,036.4,045.7,0.238,752.4,01.17,0.508
2016-06-09 02:47:00,2390E-3,5C000400,-0723,0831,12193,036.4,045.7,0.238,752.3,01.17,0.508
2016-06-09 02:48:00,2528E-3,5C000400,-0723,0830,12212,036.4,045.7,0.237,752.4,01.17,0.508
2016-06-09 02:49:00,2294E-3,5C000400,-0723,0832,12076,036.4,045.7,0.238,752.4,01.17,0.508
2016-06-09 02:50:00,2444E-3,5C000400,-0723,0831,12231,036.4,045.7,0.238,752.4,01.17,0.508
2016-06-09 02:51:00,2548E-3,5C000400,-0723,0831,12218,036.4,045.7,0.238,752.5,01.17,0.508
2016-06-09 02:52:00,2462E-3,5C000400,-0723,0831,12036,036.4,045.7,0.238,752.4,01.17,0.508
2016-06-09 02:53:00,2552E-3,5C000400,-0723,0830,12100,036.4,045.7,0.238,752.5,01.17,0.508
2016-06-09 02:54:00,2477E-3,5C000400,-0723,0831,12064,036.4,045.7,0.238,752.5,01.17,0.508
2016-06-09 02:55:00,2548E-3,5C000400,-0723,0831,12133,036.4,045.7,0.238,752.6,01.17,0.508
2016-06-09 02:56:00,2458E-3,5C000400,-0723,0831,12146,036.4,045.7,0.238,752.5,01.17,0.508
2016-06-09 02:57:00,2403E-3,5C000400,-0723,0831,12305,036.4,045.7,0.238,752.6,01.17,0.508
2016-06-09 02:58:00,2613E-3,5C000400,-0723,0832,12332,036.4,045.7,0.238,752.6,01.17,0.508
2016-06-09 02:59:00,2464E-3,5C000400,-0723,0831,12240,036.4,045.7,0.238,752.6,01.17,0.508
2016-06-09 03:00:00,2467E-3,5C000400,-0723,0831,12123,036.4,045.7,0.238,752.5,01.17,0.508
2016-06-09 03:01:00,2466E-3,5C000400,-0723,0831,12136,036.4,045.7,0.238,752.6,01.17,0.508
2016-06-09 03:02:00,2376E-3,5C000400,-0723,0831,12224,036.4,045.7,0.238,752.5,01.17,0.508
2016-06-09 03:03:00,2519E-3,5C000400,-0723,0832,12167,036.4,045.7,0.238,752.4,01.17,0.508
2016-06-09 03:04:00,2519E-3,5C000400,-0723,0831,12174,036.4,045.7,0.238,752.6,01.17,0.508
2016-06-09 03:05:00,2415E-3,5C000400,-0723,0832,12069,036.4,045.7,0.238,752.6,01.17,0.508
2016-06-09 03:06:00,2403E-3,5C000400,-0723,0831,12222,036.4,045.7,0.238,752.5,01.17,0.508
2016-06-09 03:07:00,2409E-3,5C000400,-0723,0831,12137,036.4,045.7,0.238,752.6,01.17,0.508
2016-06-09 03:08:00,2527E-3,5C000400,-0723,0831,12093,036.4,045.7,0.238,752.6,01.17,0.508
2016-06-09 03:09:00,2585E-3,5C000400,-0723,0831,12088,036.5,045.7,0.237,752.7,01.17,0.508
2016-06-09 03:10:00,2503E-3,5C000400,-0723,0831,12048,036.4,045.7,0.237,752.7,01.17,0.508
2016-06-09 03:11:00,2401E-3,5C000400,-0723,0831,12214,036.4,045.7,0.237,752.6,01.17,0.508
2016-06-09 03:12:00,2506E-3,5C000400,-0723,0831,12161,036.4,045.7,0.237,752.7,01.17,0.508
2016-06-09 03:13:00,2581E-3,5C000400,-0723,0830,12188,036.4,045.7,0.238,752.7,01.17,0.508
2016-06-09 03:14:00,2433E-3,5C000400,-0723,0833,12319,036.4,045.7,0.238,752.7,01.17,0.508
2016-06-09 03:15:00,2545E-3,5C000400,-0723,0831,12258,036.4,045.7,0.238,752.9,01.17,0.508
2016-06-09 03:16:00,2490E-3,5C000400,-0723,0832,12028,036.4,045.7,0.238,752.8,01.17,0.508
2016-06-09 03:17:00,2642E-3,5C000400,-0723,0831,12127,036.4,045.7,0.238,752.7,01.17,0.508
2016-06-09 03:18:00,2656E-3,5C000400,-0723,0832,12265,036.4,045.7,0.238,752.8,01.17,0.508
2016-06-09 03:19:00,2586E-3,5C000400,-0723,0830,12169,036.5,045.7,0.238,752.8,01.17,0.508
2016-06-09 03:20:00,2462E-3,5C000400,-0723,0831,12055,036.5,045.7,0.238,752.8,01.17,0.508
2016-06-09 03:21:00,2542E-3,5C000400,-0723,0831,12319,036.4,045.7,0.238,752.7,01.17,0.508
2016-06-09 03:22:00,2595E-3,5C000400,-0723,0831,12105,036.5,045.7,0.238,752.7,01.17,0.508
2016-06-09 03:23:00,2580E-3,5C000400,-0723,0831,12102,036.5,045.7,0.238,752.8,01.17,0.508
2016-06-09 03:24:00,2464E-3,5C000400,-0723,0831,12142,036.5,045.7,0.238,752.8,01.17,0.508
2016-06-09 03:25:00,2567E-3,5C000400,-0723,0831,12204,036.4,045.7,0.237,752.8,01.17,0.508
2016-06-09 03:26:00,2475E-3,5C000400,-0723,0832,12205,036.4,045.7,0.237,752.8,01.17,0.508
2016-06-09 03:27:00,2566E-3,5C000400,-0723,0831,12106,036.4,045.7,0.237,752.7,01.17,0.508
2016-06-09 03:28:00,2444E-3,5C000400,-0723,0833,12179,036.5,045.7,0.238,752.9,01.17,0.508
2016-06-09 03:29:00,2474E-3,5C000400,-0723,0831,12125,036.5,045.7,0.238,752.7,01.17,0.508
2016-06-09 03:30:00,2375E-3,5C000400,-0723,0832,12070,036.5,045.7,0.238,752.7,01.17,0.508
2016-06-09 03:31:00,2535E-3,5C000400,-0723,0831,12224,036.5,045.7,0.238,752.7,01.17,0.508
2016-06-09 03:32:00,2433E-3,5C000400,-0723,0833,12260,036.4,045.7,0.238,752.7,01.17,0.508
2016-06-09 03:33:00,2394E-3,5C000400,-0723,0832,12229,036.4,045.7,0.238,752.7,01.17,0.508
2016-06-09 03:34:00,2630E-3,5C000400,-0723,0831,12056,036.4,045.7,0.238,752.9,01.17,0.508
2016-06-09 03:35:00,2414E-3,5C000400,-0723,0833,12104,036.4,045.7,0.238,752.8,01.17,0.508
2016-06-09 03:36:00,2656E-3,5C000400,-0723,0830,12299,036.5,045.7,0.238,752.7,01.17,0.508
2016-06-09 03:37:00,2302E-3,5C000400,-0723,0831,12273,036.4,045.7,0.238,752.7,01.17,0.508
2016-06-09 03:38:00,2318E-3,5C000400,-0723,0831,12192,036.5,045.7,0.238,752.8,01.17,0.508
2016-06-09 03:39:00,2489E-3,5C000400,-0723,0831,12046,036.5,045.7,0.237,752.8,01.17,0.508
2016-06-09 03:40:00,2553E-3,5C000400,-0723,0830,12155,036.4,045.7,0.237,752.9,01.17,0.508
2016-06-09 03:41:00,2601E-3,5C000400,-0723,0832,12038,036.4,045.7,0.238,752.9,01.17,0.508
2016-06-09 03:42:00,2394E-3,5C000400,-0723,0831,12101,036.4,045.7,0.238,753.0,01.17,0.508
2016-06-09 03:43:00,2456E-3,5C000400,-0723,0831,12196,036.5,045.7,0.238,753.0,01.17,0.508
2016-06-09 03:44:00,2434E-3,5C000400,-0723,0831,12116,036.4,045.7,0.238,752.9,01.17,0.508
2016-06-09 03:45:00,2430E-3,5C000400,-0723,0832,12322,036.4,045.7,0.238,753.0,01.17,0.508
2016-06-09 03:46:00,2368E-3,5C000400,-0723,0831,12116,036.4,045.7,0.238,753.0,01.17,0.508
2016-06-09 03:47:00,2351E-3,5C000400,-0723,0831,12210,036.4,045.7,0.238,753.0,01.17,0.508
2016-06-09 03:48:00,2516E-3,5C000400,-0723,0831,12166,036.5,045.7,0.238,753.0,01.17,0.508
2016-06-09 03:49:00,2381E-3,5C000400,-0723,0832,12400,036.4,045.7,0.238,753.1,01.17,0.508
2016-06-09 03:50:00,2418E-3,5C000400,-0723,0831,12109,036.4,045.7,0.238,753.1,01.17,0.508
2016-06-09 03:51:00,2558E-3,5C000400,-0723,0832,12326,036.4,045.7,0.238,753.1,01.17,0.508
2016-06-09 03:52:00,2457E-3,5C000400,-0723,0831,12054,036.4,045.7,0.237,753.0,01.17,0.508
2016-06-09 03:53:00,2478E-3,5C000400,-0723,0831,12137,036.4,045.7,0.237,753.1,01.17,0.508
2016-06-09 03:54:00,2325E-3,5C000400,-0723,0832,12055,036.4,045.7,0.237,753.0,01.17,0.508
2016-06-09 03:55:00,2589E-3,5C000400,-0723,0831,12286,036.4,045.7,0.238,753.2,01.17,0.508
2016-06-09 03:56:00,2534E-3,5C000400,-0723,0831,12045,036.4,045.7,0.238,753.1,01.17,0.508
2016-06-09 03:57:00,2480E-3,5C000400,-0723,0831,12156,036.4,045.7,0.238,753.1,01.17,0.508
2016-06-09 03:58:00,2475E-3,5C000400,-0723,0831,12268,036.4,045.7,0.238,753.1,01.17,0.508
2016-06-09 03:59:00,2440E-3,5C000400,-0723,0832,12213,036.4,045.7,0.238,753.1,01.17,0.508
2016-06-09 04:00:00,2388E-3,5C000400,-0723,0831,12136,036.4,045.7,0.238,753.1,01.17,0.508
2016-06-09 04:01:00,2459E-3,5C000400,-0723,0831,12254,036.4,045.7,0.238,753.1,01.17,0.508
2016-06-09 04:02:00,2575E-3,5C000400,-0723,0831,12189,036.4,045.7,0.238,753.1,01.17,0.508
2016-06-09 04:03:00,2403E-3,5C000400,-0723,0831,12192,036.4,045.7,0.238,753.1,01.17,0.508
2016-06-09 04:04:00,2338E-3,5C000400,-0723,0831,12155,036.4,045.7,0.238,753.2,01.17,0.508
2016-06-09 04:05:00,2327E-3,5C000400,-0723,0830,12201,036.4,045.7,0.238,753.2,01.17,0.508
2016-06-09 04:06:00,2436E-3,5C000400,-0723,0830,12053,036.4,045.7,0.238,753.2,01.17,0.508
2016-06-09 04:07:00,2395E-3,5C000400,-0723,0831,12122,036.4,045.7,0.238,753.3,01.17,0.508
2016-06-09 04:08:00,2474E-3,5C000400,-0723,0831,12325,036.4,045.7,0.237,753.3,01.17,0.508
2016-06-09 04:09:00,2530E-3,5C000400,-0723,0831,12187,036.4,045.7,0.237,753.2,01.17,0.508
2016-06-09 04:10:00,2502E-3,5C000400,-0723,0831,12211,036.4,045.7,0.238,753.2,01.17,0.508
2016-06-09 04:11:00,2615E-3,5C000400,-0723,0831,12118,036.4,045.7,0.238,753.3,01.17,0.508
2016-06-09 04:12:00,2521E-3,5C000400,-0723,0831,12226,036.4,045.7,0.238,753.3,01.17,0.508
2016-06-09 04:13:00,2579E-3,5C000400,-0723,0831,12118,036.4,045.7,0.238,753.2,01.17,0.508
2016-06-09 04:14:00,2335E-3,5C000400,-0723,0831,12102,036.3,045.7,0.238,753.3,01.17,0.508
2016-06-09 04:15:00,2435E-3,5C000400,-0723,0831,12171,036.3,045.7,0.238,753.3,01.17,0.508
2016-06-09 04:16:00,2500E-3,5C000400,-0723,0831,12101,036.3,045.7,0.238,753.3,01.17,0.508
2016-06-09 04:17:00,2496E-3,5C000400,-0723,0831,12360,036.3,045.7,0.238,753.3,01.17,0.508
2016-06-09 04:18:00,2543E-3,5C000400,-0723,0831,12122,036.3,045.7,0.238,753.3,01.17,0.508
2016-06-09 04:19:00,2497E-3,5C000400,-0723,0831,12118,036.3,045.7,0.237,753.4,01.17,0.508
2016-06-09 04:20:00,2535E-3,5C000400,-0723,0831,12293,036.3,045.7,0.238,753.4,01.17,0.508
2016-06-09 04:21:00,2492E-3,5C000400,-0723,0831,12145,036.3,045.7,0.238,753.5,01.17,0.508
2016-06-09 04:22:00,2516E-3,5C000400,-0723,0831,11933,036.3,045.7,0.238,753.4,01.17,0.508
2016-06-09 04:23:00,2516E-3,5C000400,-0723,0831,11942,036.3,045.7,0.238,753.3,01.17,0.508
2016-06-09 04:24:00,2624E-3,5C000400,-0723,0832,12150,036.3,045.7,0.238,753.4,01.17,0.508
2016-06-09 04:25:00,2499E-3,5C000400,-0723,0831,12153,036.3,045.7,0.238,753.4,01.17,0.508